This is the latest recevied weather packets stored in our database for station/object N5PA. If no packets are shown the sender has not sent any weather packets the latest 10 day(s).
| Time | Temp. | Humidity | Pressure | Rain* | Wind** | Luminosity | Snow |
|---|---|---|---|---|---|---|---|
| 1777469408 | 22.78° C | 57% | 1015.6 hPa | 0 mm | - | 997 W/m² | - |
| 1777469107 | 22.78° C | 53% | 1015.6 hPa | 0 mm | - | 995 W/m² | - |
| 1777468807 | 22.78° C | 49% | 1015.6 hPa | 0 mm | - | 995 W/m² | - |
| 1777468507 | 22.78° C | 45% | 1015.3 hPa | 0 mm | - | 995 W/m² | - |
| 1777468207 | 22.22° C | 44% | 1015.3 hPa | 0 mm | - | 995 W/m² | - |
| 1777467908 | 22.22° C | 44% | 1015.5 hPa | 0 mm | - | 997 W/m² | - |
| 1777467608 | 22.22° C | 43% | 1015.4 hPa | 0 mm | - | 997 W/m² | - |
| 1777467307 | 22.22° C | 42% | 1015.4 hPa | 0 mm | - | 997 W/m² | - |
| 1777467006 | 22.22° C | 42% | 1015.4 hPa | 0 mm | - | 998 W/m² | - |
| 1777466706 | 22.22° C | 43% | 1015.4 hPa | 0 mm | - | 998 W/m² | - |
| 1777466407 | 21.67° C | 43% | 1015.4 hPa | 0 mm | - | 998 W/m² | - |
| 1777466108 | 21.67° C | 42% | 1015.2 hPa | 0 mm | - | 998 W/m² | - |
| 1777465808 | 21.67° C | 43% | 1015.2 hPa | 0 mm | - | 998 W/m² | - |
| 1777465507 | 21.67° C | 43% | 1015.1 hPa | 0 mm | - | 998 W/m² | - |
| 1777465207 | 21.67° C | 43% | 1015.1 hPa | 0 mm | - | 997 W/m² | - |
| 1777464906 | 21.67° C | 44% | 1015.2 hPa | 0 mm | - | 997 W/m² | - |
| 1777464607 | 21.67° C | 44% | 1015.1 hPa | 0 mm | - | 1000 W/m² | - |
| 1777464307 | 21.67° C | 44% | 1015 hPa | 0 mm | - | 1000 W/m² | - |
| 1777464007 | 21.67° C | 45% | 1014.8 hPa | 0 mm | - | 1000 W/m² | - |
| 1777463707 | 21.67° C | 46% | 1014.7 hPa | 0 mm | - | 1000 W/m² | - |
| 1777463407 | 21.67° C | 46% | 1014.7 hPa | 0 mm | - | 1000 W/m² | - |
| 1777463106 | 21.67° C | 47% | 1014.4 hPa | 0 mm | - | 1000 W/m² | - |
| 1777462808 | 21.67° C | 48% | 1014.5 hPa | 0 mm | - | 1000 W/m² | - |
| 1777462506 | 21.67° C | 48% | 1014.5 hPa | 0 mm | - | 998 W/m² | - |
| 1777462207 | 21.67° C | 48% | 1014.5 hPa | 0 mm | - | 1000 W/m² | - |
* Rain latest hour (hover to see other rain measurements)
** Current wind speed in m/s (hover to see current wind gust speed)